Time,TemperatureF,DewpointF,PressureIn,WindDirection,WindDirectionDegrees,WindSpeedMPH,WindSpeedGustMPH,Humidity,HourlyPrecipIn,Conditions,Clouds,dailyrainin,SoftwareType,DateUTC
2013-11-17 00:03:00,51.4,48.9,29.97,North,359,2.0,4.0,91,0.00,,,0.00,meteohub,2013-11-17 08:03:00,
2013-11-17 00:08:00,51.4,48.9,29.98,SE,145,2.0,5.0,91,0.00,,,0.00,meteohub,2013-11-17 08:08:00,
2013-11-17 00:13:00,51.4,48.9,29.98,SE,145,2.0,5.0,91,0.00,,,0.00,meteohub,2013-11-17 08:13:00,
2013-11-17 00:18:00,51.6,49.5,29.98,South,174,4.0,5.0,92,0.00,,,0.00,meteohub,2013-11-17 08:18:00,
2013-11-17 00:23:00,51.6,49.5,29.98,SE,145,4.0,7.0,92,0.00,,,0.00,meteohub,2013-11-17 08:23:00,
2013-11-17 00:28:00,51.4,49.3,29.98,SSE,164,5.0,7.0,92,0.00,,,0.00,meteohub,2013-11-17 08:28:00,
2013-11-17 00:33:00,51.4,49.3,29.97,North,359,0.0,7.0,92,0.00,,,0.00,meteohub,2013-11-17 08:33:00,
2013-11-17 00:38:00,51.3,49.1,29.98,SSE,152,6.0,8.0,92,0.00,,,0.00,meteohub,2013-11-17 08:38:00,
2013-11-17 00:43:00,51.3,49.1,29.98,SSE,154,4.0,8.0,92,0.00,,,0.00,meteohub,2013-11-17 08:43:00,
2013-11-17 00:48:00,51.3,49.1,29.97,SE,131,4.0,8.0,92,0.00,,,0.00,meteohub,2013-11-17 08:48:00,
2013-11-17 00:53:00,51.4,49.3,29.98,SSE,154,3.0,7.0,92,0.00,,,0.00,meteohub,2013-11-17 08:53:00,
2013-11-17 00:58:00,51.6,49.5,29.98,South,180,8.0,8.0,92,0.00,,,0.00,meteohub,2013-11-17 08:58:00,
2013-11-17 01:03:00,51.4,49.3,29.98,SSE,159,6.0,11.0,92,0.00,,,0.00,meteohub,2013-11-17 09:03:00,
2013-11-17 01:08:00,51.3,49.1,29.98,South,170,8.0,11.0,92,0.00,,,0.00,meteohub,2013-11-17 09:08:00,
2013-11-17 01:13:00,51.3,49.3,29.98,North,359,4.0,12.0,93,0.00,,,0.00,meteohub,2013-11-17 09:13:00,
2013-11-17 01:18:00,51.3,49.3,29.98,SSE,154,7.0,12.0,93,0.00,,,0.00,meteohub,2013-11-17 09:18:00,
2013-11-17 01:23:00,51.3,49.3,29.98,SSE,162,6.0,13.0,93,0.00,,,0.00,meteohub,2013-11-17 09:23:00,
2013-11-17 01:28:00,51.3,49.3,29.98,South,185,6.0,13.0,93,0.00,,,0.00,meteohub,2013-11-17 09:28:00,
2013-11-17 01:33:00,51.1,49.1,29.98,SSE,160,9.0,13.0,93,0.00,,,0.00,meteohub,2013-11-17 09:33:00,
2013-11-17 01:38:00,51.3,49.3,29.99,South,186,7.0,13.0,93,0.00,,,0.00,meteohub,2013-11-17 09:38:00,
2013-11-17 01:43:00,51.1,49.1,29.99,South,187,9.0,13.0,93,0.00,,,0.00,meteohub,2013-11-17 09:43:00,
2013-11-17 01:48:00,50.9,48.9,29.99,SSW,204,6.0,13.0,93,0.00,,,0.00,meteohub,2013-11-17 09:48:00,
2013-11-17 01:53:00,50.9,48.9,29.99,North,359,9.0,13.0,93,0.00,,,0.00,meteohub,2013-11-17 09:53:00,
2013-11-17 01:58:00,51.1,49.1,29.99,SSW,194,7.0,13.0,93,0.00,,,0.00,meteohub,2013-11-17 09:58:00,
2013-11-17 02:03:00,51.1,49.1,29.99,SSW,204,5.0,13.0,93,0.00,,,0.00,meteohub,2013-11-17 10:03:00,
2013-11-17 02:08:00,51.1,49.1,29.99,SSW,206,5.0,11.0,93,0.00,,,0.00,meteohub,2013-11-17 10:08:00,
2013-11-17 02:13:00,51.1,49.1,29.99,SSW,209,6.0,10.0,93,0.00,,,0.00,meteohub,2013-11-17 10:13:00,
2013-11-17 02:18:00,51.1,49.1,29.99,North,359,6.0,10.0,93,0.00,,,0.00,meteohub,2013-11-17 10:18:00,
2013-11-17 02:23:00,51.3,49.3,29.99,SSW,212,5.0,9.0,93,0.00,,,0.00,meteohub,2013-11-17 10:23:00,
2013-11-17 02:28:00,51.3,49.3,29.99,North,359,4.0,9.0,93,0.00,,,0.00,meteohub,2013-11-17 10:28:00,
2013-11-17 02:33:00,51.3,49.3,29.99,SSW,203,3.0,8.0,93,0.00,,,0.00,meteohub,2013-11-17 10:33:00,
2013-11-17 02:38:00,51.3,49.3,29.99,SSW,204,3.0,7.0,93,0.00,,,0.00,meteohub,2013-11-17 10:38:00,
2013-11-17 02:43:00,51.3,49.3,29.99,SSW,204,5.0,7.0,93,0.00,,,0.00,meteohub,2013-11-17 10:43:00,
2013-11-17 02:48:00,51.4,49.5,29.99,SSW,200,6.0,7.0,93,0.00,,,0.00,meteohub,2013-11-17 10:48:00,
2013-11-17 02:53:00,51.4,49.5,29.99,South,191,3.0,8.0,93,0.00,,,0.00,meteohub,2013-11-17 10:53:00,
2013-11-17 02:59:00,51.4,49.5,29.99,South,191,4.0,8.0,93,0.00,,,0.00,meteohub,2013-11-17 10:59:00,
2013-11-17 03:04:00,51.4,49.5,29.99,SSW,195,6.0,8.0,93,0.00,,,0.00,meteohub,2013-11-17 11:04:00,
2013-11-17 03:09:00,51.4,49.3,29.99,SSW,194,5.0,8.0,92,0.00,,,0.00,meteohub,2013-11-17 11:09:00,
2013-11-17 03:14:00,51.3,49.1,29.99,South,188,3.0,7.0,92,0.00,,,0.00,meteohub,2013-11-17 11:14:00,
2013-11-17 03:19:00,51.4,49.3,29.99,South,174,6.0,9.0,92,0.00,,,0.00,meteohub,2013-11-17 11:19:00,
2013-11-17 03:24:00,51.4,49.3,29.99,South,171,4.0,9.0,92,0.00,,,0.00,meteohub,2013-11-17 11:24:00,
2013-11-17 03:29:00,51.4,48.9,29.99,SSE,164,6.0,9.0,91,0.00,,,0.00,meteohub,2013-11-17 11:29:00,
2013-11-17 03:34:00,51.6,49.1,29.99,South,169,3.0,8.0,91,0.00,,,0.00,meteohub,2013-11-17 11:34:00,
2013-11-17 03:39:00,51.8,49.3,29.99,South,170,6.0,8.0,91,0.00,,,0.00,meteohub,2013-11-17 11:39:00,
2013-11-17 03:44:00,51.8,49.3,29.99,South,170,1.0,8.0,91,0.00,,,0.00,meteohub,2013-11-17 11:44:00,
2013-11-17 03:49:00,51.8,49.3,29.99,SSW,201,7.0,7.0,91,0.00,,,0.00,meteohub,2013-11-17 11:49:00,
2013-11-17 03:54:00,52.0,49.5,29.99,SSW,199,6.0,7.0,91,0.00,,,0.00,meteohub,2013-11-17 11:54:00,
2013-11-17 03:59:00,51.8,49.3,30.00,SW,216,5.0,9.0,91,0.00,,,0.00,meteohub,2013-11-17 11:59:00,
2013-11-17 04:04:00,51.6,48.7,30.00,SSW,207,7.0,11.0,90,0.00,,,0.00,meteohub,2013-11-17 12:04:00,
2013-11-17 04:09:00,51.4,48.6,30.00,SSW,208,7.0,11.0,90,0.00,,,0.00,meteohub,2013-11-17 12:09:00,
2013-11-17 04:14:00,51.4,48.6,30.00,SW,216,5.0,11.0,90,0.00,,,0.00,meteohub,2013-11-17 12:14:00,
2013-11-17 04:19:00,51.4,48.9,30.00,SSW,212,4.0,11.0,91,0.00,,,0.00,meteohub,2013-11-17 12:19:00,
2013-11-17 04:24:00,51.3,48.7,30.01,SW,220,7.0,12.0,91,0.00,,,0.00,meteohub,2013-11-17 12:24:00,
2013-11-17 04:29:00,51.1,48.6,30.01,SW,235,4.0,12.0,91,0.00,,,0.00,meteohub,2013-11-17 12:29:00,
2013-11-17 04:34:00,50.9,48.7,30.00,SW,231,7.0,12.0,92,0.00,,,0.00,meteohub,2013-11-17 12:34:00,
2013-11-17 04:39:00,50.7,48.6,30.01,SW,218,4.0,10.0,92,0.00,,,0.00,meteohub,2013-11-17 12:39:00,
2013-11-17 04:44:00,50.5,48.4,30.01,SW,225,9.0,10.0,92,0.00,,,0.00,meteohub,2013-11-17 12:44:00,
2013-11-17 04:49:00,50.5,48.4,30.01,SSW,204,6.0,10.0,92,0.00,,,0.00,meteohub,2013-11-17 12:49:00,
2013-11-17 04:54:00,50.5,48.4,30.01,SSW,205,6.0,10.0,92,0.00,,,0.00,meteohub,2013-11-17 12:54:00,
2013-11-17 04:59:00,50.5,48.4,30.01,SSW,207,3.0,11.0,92,0.00,,,0.00,meteohub,2013-11-17 12:59:00,
2013-11-17 05:04:00,50.5,48.4,30.01,SSW,206,7.0,11.0,92,0.00,,,0.00,meteohub,2013-11-17 13:04:00,
2013-11-17 05:09:00,50.5,48.4,30.01,SW,220,5.0,10.0,92,0.00,,,0.00,meteohub,2013-11-17 13:09:00,
2013-11-17 05:14:00,50.5,48.4,30.01,SSW,213,5.0,9.0,92,0.00,,,0.00,meteohub,2013-11-17 13:14:00,
2013-11-17 05:19:00,50.4,48.2,30.01,SW,223,4.0,9.0,92,0.00,,,0.00,meteohub,2013-11-17 13:19:00,
2013-11-17 05:24:00,50.4,48.2,30.01,SW,216,5.0,11.0,92,0.00,,,0.00,meteohub,2013-11-17 13:24:00,
2013-11-17 05:29:00,50.2,47.7,30.01,SSW,209,8.0,11.0,91,0.00,,,0.00,meteohub,2013-11-17 13:29:00,
2013-11-17 05:34:00,50.2,47.7,30.01,SSW,211,7.0,11.0,91,0.00,,,0.00,meteohub,2013-11-17 13:34:00,
2013-11-17 05:39:00,50.4,47.8,30.02,SSW,199,4.0,11.0,91,0.00,,,0.00,meteohub,2013-11-17 13:39:00,
2013-11-17 05:44:00,50.4,47.8,30.02,SSW,199,3.0,11.0,91,0.00,,,0.00,meteohub,2013-11-17 13:44:00,
2013-11-17 05:49:00,50.4,47.8,30.02,SSW,208,6.0,9.0,91,0.00,,,0.00,meteohub,2013-11-17 13:49:00,
2013-11-17 05:54:00,50.2,47.7,30.02,SW,217,4.0,8.0,91,0.00,,,0.00,meteohub,2013-11-17 13:54:00,
2013-11-17 05:59:00,50.2,47.7,30.03,SSW,193,4.0,11.0,91,0.00,,,0.00,meteohub,2013-11-17 13:59:00,
2013-11-17 06:05:00,50.2,47.7,30.03,SSW,192,4.0,11.0,91,0.00,,,0.00,meteohub,2013-11-17 14:05:00,
2013-11-17 06:10:00,49.8,47.3,30.03,SSW,192,3.0,11.0,91,0.00,,,0.00,meteohub,2013-11-17 14:10:00,
2013-11-17 06:15:00,49.8,47.3,30.03,South,177,4.0,8.0,91,0.00,,,0.00,meteohub,2013-11-17 14:15:00,
2013-11-17 06:20:00,49.8,47.3,30.03,South,172,7.0,8.0,91,0.00,,,0.00,meteohub,2013-11-17 14:20:00,
2013-11-17 06:25:00,49.8,47.3,30.03,SSE,165,7.0,7.0,91,0.00,,,0.00,meteohub,2013-11-17 14:25:00,
2013-11-17 06:30:00,49.6,47.1,30.03,SSE,161,5.0,9.0,91,0.00,,,0.00,meteohub,2013-11-17 14:30:00,
2013-11-17 06:35:00,49.6,47.1,30.04,SE,143,6.0,9.0,91,0.00,,,0.00,meteohub,2013-11-17 14:35:00,
2013-11-17 06:40:00,49.6,47.1,30.04,SSE,160,9.0,9.0,91,0.00,,,0.00,meteohub,2013-11-17 14:40:00,
2013-11-17 06:45:00,49.8,47.3,30.04,SSE,159,9.0,9.0,91,0.00,,,0.00,meteohub,2013-11-17 14:45:00,
2013-11-17 06:50:00,49.8,47.3,30.04,SSE,154,8.0,11.0,91,0.00,,,0.00,meteohub,2013-11-17 14:50:00,
2013-11-17 06:55:00,50.0,47.5,30.04,South,176,5.0,11.0,91,0.00,,,0.00,meteohub,2013-11-17 14:55:00,
2013-11-17 07:00:00,50.2,48.0,30.04,South,184,7.0,11.0,92,0.00,,,0.00,meteohub,2013-11-17 15:00:00,
2013-11-17 07:05:00,50.2,48.0,30.05,South,171,6.0,11.0,92,0.00,,,0.00,meteohub,2013-11-17 15:05:00,
2013-11-17 07:10:00,50.4,48.2,30.05,South,172,4.0,11.0,92,0.00,,,0.00,meteohub,2013-11-17 15:10:00,
2013-11-17 07:15:00,50.4,47.8,30.06,South,174,3.0,9.0,91,0.00,,,0.00,meteohub,2013-11-17 15:15:00,
2013-11-17 07:20:00,50.5,48.0,30.06,South,174,4.0,8.0,91,0.00,,,0.00,meteohub,2013-11-17 15:20:00,
2013-11-17 07:25:00,50.7,48.2,30.06,South,174,1.0,6.0,91,0.00,,,0.00,meteohub,2013-11-17 15:25:00,
2013-11-17 07:30:00,50.9,48.4,30.06,South,174,3.0,6.0,91,0.00,,,0.00,meteohub,2013-11-17 15:30:00,
2013-11-17 07:35:00,51.1,48.6,30.06,South,174,0.0,6.0,91,0.00,,,0.00,meteohub,2013-11-17 15:35:00,
2013-11-17 07:40:00,50.9,48.0,30.06,South,174,2.0,4.0,90,0.00,,,0.00,meteohub,2013-11-17 15:40:00,
2013-11-17 07:45:00,50.9,48.0,30.07,SSE,164,6.0,7.0,90,0.00,,,0.00,meteohub,2013-11-17 15:45:00,
2013-11-17 07:50:00,51.1,48.2,30.07,SSE,160,4.0,7.0,90,0.00,,,0.00,meteohub,2013-11-17 15:50:00,
2013-11-17 07:55:00,51.1,48.0,30.07,SSE,162,3.0,7.0,89,0.00,,,0.00,meteohub,2013-11-17 15:55:00,
2013-11-17 08:00:00,51.3,48.2,30.07,SSE,160,2.0,6.0,89,0.00,,,0.00,meteohub,2013-11-17 16:00:00,
2013-11-17 08:05:00,51.4,48.0,30.07,SSE,149,3.0,8.0,88,0.00,,,0.00,meteohub,2013-11-17 16:05:00,
2013-11-17 08:10:00,51.4,48.0,30.08,SSE,148,2.0,8.0,88,0.00,,,0.00,meteohub,2013-11-17 16:10:00,
2013-11-17 08:15:00,51.6,47.8,30.08,SSE,160,2.0,8.0,87,0.00,,,0.00,meteohub,2013-11-17 16:15:00,
2013-11-17 08:20:00,51.8,48.0,30.08,SSE,164,5.0,7.0,87,0.00,,,0.00,meteohub,2013-11-17 16:20:00,
2013-11-17 08:25:00,52.0,48.2,30.08,SSE,164,4.0,7.0,87,0.00,,,0.00,meteohub,2013-11-17 16:25:00,
2013-11-17 08:30:00,52.2,48.7,30.09,South,178,4.0,7.0,88,0.00,,,0.00,meteohub,2013-11-17 16:30:00,
2013-11-17 08:35:00,52.2,48.7,30.09,South,189,5.0,6.0,88,0.00,,,0.00,meteohub,2013-11-17 16:35:00,
2013-11-17 08:41:00,52.2,48.7,30.09,South,189,2.0,7.0,88,0.00,,,0.00,meteohub,2013-11-17 16:41:00,
2013-11-17 08:46:00,52.2,48.7,30.09,South,191,4.0,7.0,88,0.00,,,0.00,meteohub,2013-11-17 16:46:00,
2013-11-17 08:51:00,52.3,48.9,30.09,South,190,3.0,6.0,88,0.00,,,0.00,meteohub,2013-11-17 16:51:00,
2013-11-17 08:56:00,52.3,48.9,30.09,SSE,166,5.0,7.0,88,0.00,,,0.00,meteohub,2013-11-17 16:56:00,
2013-11-17 09:01:00,52.5,48.7,30.10,South,169,5.0,7.0,87,0.00,,,0.00,meteohub,2013-11-17 17:01:00,
2013-11-17 09:06:00,52.7,48.6,30.10,South,174,4.0,8.0,86,0.00,,,0.00,meteohub,2013-11-17 17:06:00,
2013-11-17 09:11:00,52.9,48.6,30.10,South,183,5.0,8.0,85,0.00,,,0.00,meteohub,2013-11-17 17:11:00,
2013-11-17 09:16:00,53.1,48.4,30.10,SSE,164,6.0,8.0,84,0.00,,,0.00,meteohub,2013-11-17 17:16:00,
2013-11-17 09:21:00,53.2,48.6,30.10,South,183,2.0,8.0,84,0.00,,,0.00,meteohub,2013-11-17 17:21:00,
2013-11-17 09:26:00,53.4,48.7,30.10,South,174,6.0,8.0,84,0.00,,,0.00,meteohub,2013-11-17 17:26:00,
2013-11-17 09:31:00,53.6,48.6,30.11,South,172,5.0,8.0,83,0.00,,,0.00,meteohub,2013-11-17 17:31:00,
2013-11-17 09:36:00,53.8,48.4,30.11,SSE,168,6.0,9.0,82,0.00,,,0.00,meteohub,2013-11-17 17:36:00,
2013-11-17 09:41:00,54.0,48.6,30.11,South,172,6.0,9.0,82,0.00,,,0.00,meteohub,2013-11-17 17:41:00,
2013-11-17 09:46:00,54.3,48.6,30.11,SSE,168,5.0,10.0,81,0.00,,,0.00,meteohub,2013-11-17 17:46:00,
2013-11-17 09:51:00,54.7,48.6,30.12,SSE,166,4.0,11.0,80,0.00,,,0.00,meteohub,2013-11-17 17:51:00,
2013-11-17 09:56:00,54.7,48.6,30.12,SSE,167,5.0,11.0,80,0.00,,,0.00,meteohub,2013-11-17 17:56:00,
2013-11-17 10:01:00,54.9,48.7,30.12,SSE,155,6.0,11.0,80,0.00,,,0.00,meteohub,2013-11-17 18:01:00,
2013-11-17 10:06:00,54.9,48.7,30.12,South,183,7.0,10.0,80,0.00,,,0.00,meteohub,2013-11-17 18:06:00,
2013-11-17 10:11:00,54.9,48.7,30.12,SSE,164,4.0,10.0,80,0.00,,,0.00,meteohub,2013-11-17 18:11:00,
2013-11-17 10:16:00,55.0,48.6,30.12,SSE,167,5.0,10.0,79,0.00,,,0.00,meteohub,2013-11-17 18:16:00,
2013-11-17 10:21:00,55.2,48.7,30.12,SSW,208,8.0,10.0,79,0.00,,,0.00,meteohub,2013-11-17 18:21:00,
2013-11-17 10:26:00,54.9,48.2,30.12,SW,215,4.0,10.0,78,0.00,,,0.00,meteohub,2013-11-17 18:26:00,
2013-11-17 10:31:00,55.0,48.4,30.12,SSW,193,6.0,12.0,78,0.00,,,0.00,meteohub,2013-11-17 18:31:00,
2013-11-17 10:36:00,55.0,48.4,30.12,SSW,210,7.0,12.0,78,0.00,,,0.00,meteohub,2013-11-17 18:36:00,
2013-11-17 10:41:00,55.0,48.4,30.12,SSW,208,8.0,12.0,78,0.00,,,0.00,meteohub,2013-11-17 18:41:00,
2013-11-17 10:46:00,55.0,48.6,30.13,South,179,9.0,12.0,79,0.00,,,0.00,meteohub,2013-11-17 18:46:00,
2013-11-17 10:51:00,55.2,48.6,30.13,South,177,7.0,13.0,78,0.00,,,0.00,meteohub,2013-11-17 18:51:00,
2013-11-17 10:56:00,55.4,48.7,30.13,SSE,160,7.0,13.0,78,0.00,,,0.00,meteohub,2013-11-17 18:56:00,
2013-11-17 11:01:00,55.6,48.6,30.13,South,177,6.0,13.0,77,0.00,,,0.00,meteohub,2013-11-17 19:01:00,
2013-11-17 11:06:00,55.2,48.6,30.13,SSE,163,4.0,13.0,78,0.00,,,0.00,meteohub,2013-11-17 19:06:00,
2013-11-17 11:11:00,55.6,48.9,30.13,SSE,152,1.0,11.0,78,0.00,,,0.00,meteohub,2013-11-17 19:11:00,
2013-11-17 11:16:00,55.6,48.2,30.12,SSE,161,3.0,10.0,76,0.00,,,0.00,meteohub,2013-11-17 19:16:00,
2013-11-17 11:21:00,55.6,48.2,30.12,South,170,5.0,9.0,76,0.00,,,0.00,meteohub,2013-11-17 19:21:00,
2013-11-17 11:26:00,55.9,48.6,30.12,SSE,152,7.0,9.0,76,0.00,,,0.00,meteohub,2013-11-17 19:26:00,
2013-11-17 11:31:00,55.9,48.6,30.12,SSE,147,6.0,9.0,76,0.00,,,0.00,meteohub,2013-11-17 19:31:00,
2013-11-17 11:36:00,56.3,48.9,30.12,SSE,153,2.0,9.0,76,0.00,,,0.00,meteohub,2013-11-17 19:36:00,
2013-11-17 11:41:00,56.1,48.4,30.12,South,179,5.0,9.0,75,0.00,,,0.00,meteohub,2013-11-17 19:41:00,
2013-11-17 11:47:00,56.3,48.6,30.11,SSE,160,1.0,9.0,75,0.00,,,0.00,meteohub,2013-11-17 19:47:00,
2013-11-17 11:52:00,56.3,48.6,30.11,South,178,3.0,9.0,75,0.00,,,0.00,meteohub,2013-11-17 19:52:00,
2013-11-17 11:57:00,56.1,48.4,30.11,South,179,5.0,8.0,75,0.00,,,0.00,meteohub,2013-11-17 19:57:00,
2013-11-17 12:02:00,56.5,48.7,30.11,SSE,163,5.0,8.0,75,0.00,,,0.00,meteohub,2013-11-17 20:02:00,
2013-11-17 12:07:00,56.7,48.4,30.11,SSW,207,7.0,8.0,74,0.00,,,0.00,meteohub,2013-11-17 20:07:00,
2013-11-17 12:12:00,56.8,48.6,30.11,SW,218,4.0,8.0,74,0.00,,,0.00,meteohub,2013-11-17 20:12:00,
2013-11-17 12:17:00,56.7,48.0,30.10,SSW,208,8.0,9.0,73,0.00,,,0.00,meteohub,2013-11-17 20:17:00,
2013-11-17 12:22:00,56.7,48.0,30.10,SSW,211,7.0,9.0,73,0.00,,,0.00,meteohub,2013-11-17 20:22:00,
2013-11-17 12:27:00,56.7,48.4,30.10,SW,226,7.0,12.0,74,0.00,,,0.00,meteohub,2013-11-17 20:27:00,
2013-11-17 12:32:00,56.8,48.2,30.10,SW,216,6.0,12.0,73,0.00,,,0.00,meteohub,2013-11-17 20:32:00,
2013-11-17 12:37:00,56.3,48.2,30.09,SSW,199,7.0,12.0,74,0.00,,,0.00,meteohub,2013-11-17 20:37:00,
2013-11-17 12:42:00,56.7,48.4,30.09,SW,216,4.0,12.0,74,0.00,,,0.00,meteohub,2013-11-17 20:42:00,
2013-11-17 12:47:00,57.0,48.7,30.09,SW,217,6.0,12.0,74,0.00,,,0.00,meteohub,2013-11-17 20:47:00,
2013-11-17 12:52:00,56.8,48.6,30.09,SSW,203,6.0,11.0,74,0.00,,,0.00,meteohub,2013-11-17 20:52:00,
2013-11-17 12:57:00,56.8,48.9,30.09,SW,230,3.0,10.0,75,0.00,,,0.00,meteohub,2013-11-17 20:57:00,
2013-11-17 13:02:00,57.0,48.7,30.09,SSW,202,6.0,9.0,74,0.00,,,0.00,meteohub,2013-11-17 21:02:00,
2013-11-17 13:07:00,57.0,48.7,30.09,SSW,196,4.0,9.0,74,0.00,,,0.00,meteohub,2013-11-17 21:07:00,
2013-11-17 13:12:00,57.4,49.1,30.09,SSW,192,5.0,9.0,74,0.00,,,0.00,meteohub,2013-11-17 21:12:00,
2013-11-17 13:17:00,57.4,49.1,30.08,SSW,207,6.0,10.0,74,0.00,,,0.00,meteohub,2013-11-17 21:17:00,
2013-11-17 13:22:00,57.6,49.3,30.08,SW,221,7.0,10.0,74,0.00,,,0.00,meteohub,2013-11-17 21:22:00,
2013-11-17 13:27:00,57.2,48.9,30.08,WSW,239,8.0,10.0,74,0.00,,,0.00,meteohub,2013-11-17 21:27:00,
2013-11-17 13:32:00,56.8,48.9,30.08,SW,235,9.0,11.0,75,0.00,,,0.00,meteohub,2013-11-17 21:32:00,
2013-11-17 13:37:00,56.7,48.7,30.08,SSW,211,6.0,11.0,75,0.00,,,0.00,meteohub,2013-11-17 21:37:00,
2013-11-17 13:42:00,56.8,48.9,30.08,SW,233,6.0,11.0,75,0.00,,,0.00,meteohub,2013-11-17 21:42:00,
2013-11-17 13:47:00,57.2,48.9,30.08,SSW,211,8.0,11.0,74,0.00,,,0.00,meteohub,2013-11-17 21:47:00,
2013-11-17 13:52:00,57.0,49.1,30.08,SW,230,4.0,11.0,75,0.00,,,0.00,meteohub,2013-11-17 21:52:00,
2013-11-17 13:57:00,57.2,48.9,30.08,SW,235,7.0,10.0,74,0.00,,,0.00,meteohub,2013-11-17 21:57:00,
2013-11-17 14:03:00,56.7,48.0,30.08,WSW,238,7.0,9.0,73,0.00,,,0.00,meteohub,2013-11-17 22:03:00,
2013-11-17 14:08:00,56.8,48.2,30.08,SSW,210,7.0,10.0,73,0.00,,,0.00,meteohub,2013-11-17 22:08:00,
2013-11-17 14:13:00,57.0,48.7,30.08,SSW,206,7.0,10.0,74,0.00,,,0.00,meteohub,2013-11-17 22:13:00,
2013-11-17 14:18:00,56.8,48.9,30.08,SSW,195,6.0,10.0,75,0.00,,,0.00,meteohub,2013-11-17 22:18:00,
2013-11-17 14:23:00,57.4,49.1,30.08,SSW,202,5.0,10.0,74,0.00,,,0.00,meteohub,2013-11-17 22:23:00,
2013-11-17 14:28:00,56.8,49.3,30.08,SSW,199,6.0,10.0,76,0.00,,,0.00,meteohub,2013-11-17 22:28:00,
2013-11-17 14:33:00,56.8,49.3,30.08,WSW,238,6.0,10.0,76,0.00,,,0.00,meteohub,2013-11-17 22:33:00,
2013-11-17 14:38:00,56.8,48.9,30.08,SW,214,5.0,10.0,75,0.00,,,0.00,meteohub,2013-11-17 22:38:00,
2013-11-17 14:43:00,56.8,48.9,30.08,SW,220,5.0,10.0,75,0.00,,,0.00,meteohub,2013-11-17 22:43:00,
2013-11-17 14:48:00,56.8,49.3,30.08,SW,224,3.0,10.0,76,0.00,,,0.00,meteohub,2013-11-17 22:48:00,
2013-11-17 14:53:00,56.8,48.9,30.08,SW,222,4.0,9.0,75,0.00,,,0.00,meteohub,2013-11-17 22:53:00,
2013-11-17 14:58:00,56.8,48.9,30.08,SW,228,6.0,9.0,75,0.00,,,0.00,meteohub,2013-11-17 22:58:00,
2013-11-17 15:03:00,56.1,48.7,30.08,SW,229,9.0,9.0,76,0.00,,,0.00,meteohub,2013-11-17 23:03:00,
2013-11-17 15:08:00,55.9,48.6,30.08,SW,228,9.0,10.0,76,0.00,,,0.00,meteohub,2013-11-17 23:08:00,
2013-11-17 15:13:00,55.6,48.6,30.08,WSW,237,6.0,10.0,77,0.00,,,0.00,meteohub,2013-11-17 23:13:00,
2013-11-17 15:18:00,55.6,48.9,30.08,SW,227,5.0,10.0,78,0.00,,,0.00,meteohub,2013-11-17 23:18:00,
2013-11-17 15:23:00,55.8,49.3,30.08,SSW,206,7.0,10.0,79,0.00,,,0.00,meteohub,2013-11-17 23:23:00,
2013-11-17 15:28:00,55.4,48.9,30.08,SW,221,7.0,10.0,79,0.00,,,0.00,meteohub,2013-11-17 23:28:00,
2013-11-17 15:33:00,55.0,48.9,30.08,SW,226,7.0,10.0,80,0.00,,,0.00,meteohub,2013-11-17 23:33:00,
2013-11-17 15:38:00,54.9,48.7,30.08,SSW,208,8.0,10.0,80,0.00,,,0.00,meteohub,2013-11-17 23:38:00,
2013-11-17 15:43:00,54.3,48.6,30.08,SSW,207,5.0,10.0,81,0.00,,,0.00,meteohub,2013-11-17 23:43:00,
2013-11-17 15:48:00,54.1,48.4,30.08,SW,216,7.0,10.0,81,0.00,,,0.00,meteohub,2013-11-17 23:48:00,
2013-11-17 15:53:00,53.8,48.0,30.08,SSW,208,7.0,9.0,81,0.00,,,0.00,meteohub,2013-11-17 23:53:00,
2013-11-17 15:58:00,53.8,48.0,30.08,SSW,209,9.0,9.0,81,0.00,,,0.00,meteohub,2013-11-17 23:58:00,
2013-11-17 16:03:00,53.6,48.2,30.08,SSW,210,6.0,9.0,82,0.00,,,0.00,meteohub,2013-11-18 00:03:00,
2013-11-17 16:08:00,53.4,48.4,30.08,SSW,209,6.0,9.0,83,0.00,,,0.00,meteohub,2013-11-18 00:08:00,
2013-11-17 16:13:00,53.4,48.4,30.08,SW,226,5.0,9.0,83,0.00,,,0.00,meteohub,2013-11-18 00:13:00,
2013-11-17 16:18:00,53.2,47.8,30.08,SW,231,5.0,9.0,82,0.00,,,0.00,meteohub,2013-11-18 00:18:00,
2013-11-17 16:23:00,53.1,47.7,30.08,SW,224,6.0,9.0,82,0.00,,,0.00,meteohub,2013-11-18 00:23:00,
2013-11-17 16:28:00,53.1,47.7,30.08,SW,222,4.0,9.0,82,0.00,,,0.00,meteohub,2013-11-18 00:28:00,
2013-11-17 16:33:00,53.1,47.7,30.08,SW,218,5.0,9.0,82,0.00,,,0.00,meteohub,2013-11-18 00:33:00,
2013-11-17 16:38:00,53.1,48.0,30.08,SW,216,2.0,7.0,83,0.00,,,0.00,meteohub,2013-11-18 00:38:00,
2013-11-17 16:44:00,53.1,48.0,30.08,SW,218,2.0,6.0,83,0.00,,,0.00,meteohub,2013-11-18 00:44:00,
2013-11-17 16:49:00,53.1,48.0,30.08,SW,218,2.0,6.0,83,0.00,,,0.00,meteohub,2013-11-18 00:49:00,
2013-11-17 16:54:00,53.1,48.4,30.08,SW,216,4.0,5.0,84,0.00,,,0.00,meteohub,2013-11-18 00:54:00,
2013-11-17 16:59:00,52.9,48.2,30.08,SW,217,0.0,4.0,84,0.00,,,0.00,meteohub,2013-11-18 00:59:00,
2013-11-17 17:04:00,52.7,48.0,30.09,SW,217,0.0,4.0,84,0.00,,,0.00,meteohub,2013-11-18 01:04:00,
2013-11-17 17:09:00,52.7,48.4,30.09,SW,217,2.0,4.0,85,0.00,,,0.00,meteohub,2013-11-18 01:09:00,
2013-11-17 17:14:00,52.5,48.2,30.09,SW,218,2.0,3.0,85,0.00,,,0.00,meteohub,2013-11-18 01:14:00,
2013-11-17 17:19:00,52.5,48.2,30.09,SW,217,3.0,4.0,85,0.00,,,0.00,meteohub,2013-11-18 01:19:00,
2013-11-17 17:24:00,52.5,48.4,30.09,SW,217,4.0,4.0,86,0.00,,,0.00,meteohub,2013-11-18 01:24:00,
2013-11-17 17:29:00,52.5,48.7,30.08,SW,217,0.0,4.0,87,0.00,,,0.00,meteohub,2013-11-18 01:29:00,
2013-11-17 17:34:00,52.3,48.6,30.09,SW,217,2.0,5.0,87,0.00,,,0.00,meteohub,2013-11-18 01:34:00,
2013-11-17 17:39:00,52.2,48.4,30.09,SW,217,1.0,5.0,87,0.00,,,0.00,meteohub,2013-11-18 01:39:00,
2013-11-17 17:44:00,52.2,48.4,30.09,SW,217,4.0,4.0,87,0.00,,,0.00,meteohub,2013-11-18 01:44:00,
2013-11-17 17:49:00,52.2,48.4,30.09,SW,218,1.0,4.0,87,0.00,,,0.00,meteohub,2013-11-18 01:49:00,
2013-11-17 17:54:00,52.2,48.4,30.09,SW,217,2.0,5.0,87,0.00,,,0.00,meteohub,2013-11-18 01:54:00,
2013-11-17 17:59:00,52.2,48.4,30.09,SW,217,0.0,5.0,87,0.00,,,0.00,meteohub,2013-11-18 01:59:00,
2013-11-17 18:04:00,52.2,48.4,30.10,SW,217,0.0,5.0,87,0.00,,,0.00,meteohub,2013-11-18 02:04:00,
2013-11-17 18:09:00,52.2,48.4,30.09,SW,217,1.0,4.0,87,0.00,,,0.00,meteohub,2013-11-18 02:09:00,
2013-11-17 18:14:00,52.2,48.4,30.10,SW,217,2.0,3.0,87,0.00,,,0.00,meteohub,2013-11-18 02:14:00,
2013-11-17 18:19:00,52.2,48.0,30.10,SW,217,2.0,3.0,86,0.00,,,0.00,meteohub,2013-11-18 02:19:00,
2013-11-17 18:24:00,52.2,48.0,30.10,SW,218,1.0,3.0,86,0.00,,,0.00,meteohub,2013-11-18 02:24:00,
2013-11-17 18:29:00,52.2,48.0,30.10,SW,217,0.0,4.0,86,0.00,,,0.00,meteohub,2013-11-18 02:29:00,
2013-11-17 18:34:00,52.2,48.0,30.09,SW,218,0.0,4.0,86,0.00,,,0.00,meteohub,2013-11-18 02:34:00,
2013-11-17 18:39:00,52.2,48.0,30.10,SW,217,1.0,4.0,86,0.00,,,0.00,meteohub,2013-11-18 02:39:00,
2013-11-17 18:44:00,52.2,48.0,30.10,SW,217,2.0,4.0,86,0.00,,,0.00,meteohub,2013-11-18 02:44:00,
2013-11-17 18:49:00,52.2,48.4,30.09,SW,216,4.0,4.0,87,0.00,,,0.00,meteohub,2013-11-18 02:49:00,
2013-11-17 18:54:00,52.2,48.0,30.10,SW,216,5.0,5.0,86,0.00,,,0.00,meteohub,2013-11-18 02:54:00,
2013-11-17 18:59:00,52.2,48.0,30.10,SW,216,3.0,5.0,86,0.00,,,0.00,meteohub,2013-11-18 02:59:00,
2013-11-17 19:04:00,52.3,48.2,30.10,SW,214,0.0,6.0,86,0.00,,,0.00,meteohub,2013-11-18 03:04:00,
2013-11-17 19:09:00,52.3,48.2,30.10,SW,214,0.0,6.0,86,0.00,,,0.00,meteohub,2013-11-18 03:09:00,
2013-11-17 19:14:00,52.2,48.0,30.10,SW,214,1.0,6.0,86,0.00,,,0.00,meteohub,2013-11-18 03:14:00,
2013-11-17 19:19:00,52.0,47.8,30.10,SW,214,0.0,6.0,86,0.00,,,0.00,meteohub,2013-11-18 03:19:00,
2013-11-17 19:24:00,51.8,48.0,30.10,SW,214,0.0,4.0,87,0.00,,,0.00,meteohub,2013-11-18 03:24:00,
2013-11-17 19:29:00,51.8,48.0,30.10,SW,214,0.0,3.0,87,0.00,,,0.00,meteohub,2013-11-18 03:29:00,
2013-11-17 19:34:00,51.6,47.8,30.10,SW,214,1.0,2.0,87,0.00,,,0.00,meteohub,2013-11-18 03:34:00,
2013-11-17 19:39:00,51.6,47.8,30.10,SW,214,2.0,3.0,87,0.00,,,0.00,meteohub,2013-11-18 03:39:00,
2013-11-17 19:45:00,51.6,47.8,30.10,SW,214,1.0,3.0,87,0.00,,,0.00,meteohub,2013-11-18 03:45:00,
2013-11-17 19:50:00,51.8,48.0,30.11,SW,214,1.0,3.0,87,0.00,,,0.00,meteohub,2013-11-18 03:50:00,
2013-11-17 19:55:00,51.8,48.0,30.11,SW,214,0.0,3.0,87,0.00,,,0.00,meteohub,2013-11-18 03:55:00,
2013-11-17 20:00:00,51.6,47.8,30.11,SW,214,1.0,3.0,87,0.00,,,0.00,meteohub,2013-11-18 04:00:00,
2013-11-17 20:05:00,51.6,47.8,30.11,SW,214,2.0,3.0,87,0.00,,,0.00,meteohub,2013-11-18 04:05:00,
2013-11-17 20:10:00,51.4,47.7,30.11,SW,214,1.0,3.0,87,0.00,,,0.00,meteohub,2013-11-18 04:10:00,
2013-11-17 20:15:00,51.4,47.7,30.11,SW,214,2.0,3.0,87,0.00,,,0.00,meteohub,2013-11-18 04:15:00,
2013-11-17 20:20:00,51.4,47.7,30.12,SW,214,2.0,4.0,87,0.00,,,0.00,meteohub,2013-11-18 04:20:00,
2013-11-17 20:25:00,51.4,47.7,30.11,SW,214,1.0,4.0,87,0.00,,,0.00,meteohub,2013-11-18 04:25:00,
2013-11-17 20:30:00,51.3,47.5,30.12,SW,214,1.0,4.0,87,0.00,,,0.00,meteohub,2013-11-18 04:30:00,
2013-11-17 20:35:00,51.3,47.5,30.12,SSW,213,1.0,3.0,87,0.00,,,0.00,meteohub,2013-11-18 04:35:00,
2013-11-17 20:40:00,51.3,47.5,30.12,SW,214,0.0,3.0,87,0.00,,,0.00,meteohub,2013-11-18 04:40:00,
2013-11-17 20:45:00,51.1,47.3,30.12,SW,214,0.0,3.0,87,0.00,,,0.00,meteohub,2013-11-18 04:45:00,
2013-11-17 20:50:00,51.3,47.5,30.12,SSW,213,0.0,3.0,87,0.00,,,0.00,meteohub,2013-11-18 04:50:00,
2013-11-17 20:55:00,51.1,47.3,30.12,SW,214,2.0,2.0,87,0.00,,,0.00,meteohub,2013-11-18 04:55:00,
2013-11-17 21:00:00,51.1,47.3,30.12,SW,215,2.0,2.0,87,0.00,,,0.00,meteohub,2013-11-18 05:00:00,
2013-11-17 21:01:00,51.1,47.3,30.12,SSW,213,3.0,3.0,87,0.00,,,0.00,meteohub,2013-11-18 05:01:00,
2013-11-17 21:02:00,51.1,47.3,30.12,SW,214,2.0,3.0,87,0.00,,,0.00,meteohub,2013-11-18 05:02:00,
2013-11-17 21:03:00,51.1,47.3,30.12,SW,214,2.0,3.0,87,0.00,,,0.00,meteohub,2013-11-18 05:03:00,
2013-11-17 21:04:00,51.1,47.3,30.12,SW,214,2.0,3.0,87,0.00,,,0.00,meteohub,2013-11-18 05:04:00,
2013-11-17 21:09:00,50.9,47.1,30.12,SW,214,1.0,4.0,87,0.00,,,0.00,meteohub,2013-11-18 05:09:00,
2013-11-17 21:14:00,51.1,47.3,30.12,SW,214,2.0,4.0,87,0.00,,,0.00,meteohub,2013-11-18 05:14:00,
2013-11-17 21:20:00,51.1,47.3,30.12,SSW,213,3.0,4.0,87,0.00,,,0.00,meteohub,2013-11-18 05:20:00,
2013-11-17 21:25:00,50.9,47.1,30.12,SW,214,1.0,3.0,87,0.00,,,0.00,meteohub,2013-11-18 05:25:00,
2013-11-17 21:30:00,50.9,47.1,30.12,SW,214,2.0,3.0,87,0.00,,,0.00,meteohub,2013-11-18 05:30:00,
2013-11-17 21:35:00,50.9,47.5,30.12,SW,214,1.0,4.0,88,0.00,,,0.00,meteohub,2013-11-18 05:35:00,
2013-11-17 21:40:00,50.9,47.5,30.13,SW,214,2.0,4.0,88,0.00,,,0.00,meteohub,2013-11-18 05:40:00,
2013-11-17 21:45:00,50.9,47.5,30.13,SW,214,3.0,4.0,88,0.00,,,0.00,meteohub,2013-11-18 05:45:00,
2013-11-17 21:50:00,50.7,47.3,30.13,SW,214,2.0,4.0,88,0.00,,,0.00,meteohub,2013-11-18 05:50:00,
2013-11-17 21:55:00,50.7,47.3,30.12,SW,214,3.0,4.0,88,0.00,,,0.00,meteohub,2013-11-18 05:55:00,
2013-11-17 22:00:00,50.7,47.3,30.12,SSW,213,2.0,4.0,88,0.00,,,0.00,meteohub,2013-11-18 06:00:00,
2013-11-17 22:05:00,50.7,47.3,30.12,SW,214,2.0,4.0,88,0.00,,,0.00,meteohub,2013-11-18 06:05:00,
2013-11-17 22:10:00,50.7,47.3,30.12,SW,214,3.0,4.0,88,0.00,,,0.00,meteohub,2013-11-18 06:10:00,
2013-11-17 22:15:00,50.7,47.3,30.13,SW,214,2.0,4.0,88,0.00,,,0.00,meteohub,2013-11-18 06:15:00,
2013-11-17 22:20:00,50.7,47.3,30.13,SSW,212,3.0,4.0,88,0.00,,,0.00,meteohub,2013-11-18 06:20:00,
2013-11-17 22:25:00,50.7,47.3,30.13,SW,214,2.0,4.0,88,0.00,,,0.00,meteohub,2013-11-18 06:25:00,
2013-11-17 22:30:00,50.5,47.1,30.13,SSW,213,0.0,4.0,88,0.00,,,0.00,meteohub,2013-11-18 06:30:00,
2013-11-17 22:35:00,50.5,47.1,30.13,SW,214,1.0,4.0,88,0.00,,,0.00,meteohub,2013-11-18 06:35:00,
2013-11-17 22:40:00,50.5,47.1,30.13,North,359,0.0,3.0,88,0.00,,,0.00,meteohub,2013-11-18 06:40:00,
2013-11-17 22:45:00,50.4,46.9,30.13,SW,214,0.0,3.0,88,0.00,,,0.00,meteohub,2013-11-18 06:45:00,
2013-11-17 22:50:00,50.4,46.9,30.13,SSW,212,0.0,2.0,88,0.00,,,0.00,meteohub,2013-11-18 06:50:00,
2013-11-17 22:55:00,50.4,47.3,30.13,SW,215,2.0,3.0,89,0.00,,,0.00,meteohub,2013-11-18 06:55:00,
2013-11-17 23:00:00,50.2,47.1,30.13,SW,214,2.0,3.0,89,0.00,,,0.00,meteohub,2013-11-18 07:00:00,
2013-11-17 23:05:00,50.0,46.9,30.13,SW,214,2.0,3.0,89,0.00,,,0.00,meteohub,2013-11-18 07:05:00,
2013-11-17 23:10:00,49.8,46.8,30.14,North,359,1.0,3.0,89,0.00,,,0.00,meteohub,2013-11-18 07:10:00,
2013-11-17 23:15:00,49.8,46.8,30.14,SW,214,3.0,3.0,89,0.00,,,0.00,meteohub,2013-11-18 07:15:00,
2013-11-17 23:20:00,50.0,47.1,30.14,SW,216,2.0,3.0,90,0.00,,,0.00,meteohub,2013-11-18 07:20:00,
2013-11-17 23:25:00,50.0,46.9,30.14,SSW,213,2.0,3.0,89,0.00,,,0.00,meteohub,2013-11-18 07:25:00,
2013-11-17 23:30:00,49.8,46.8,30.14,SW,214,1.0,3.0,89,0.00,,,0.00,meteohub,2013-11-18 07:30:00,
2013-11-17 23:35:00,49.8,46.8,30.14,North,359,0.0,3.0,89,0.00,,,0.00,meteohub,2013-11-18 07:35:00,
2013-11-17 23:40:00,49.8,46.9,30.14,SSW,213,0.0,2.0,90,0.00,,,0.00,meteohub,2013-11-18 07:40:00,
2013-11-17 23:45:00,49.8,46.9,30.14,North,359,0.0,2.0,90,0.00,,,0.00,meteohub,2013-11-18 07:45:00,
2013-11-17 23:50:00,49.6,46.8,30.14,SSW,212,0.0,1.0,90,0.00,,,0.00,meteohub,2013-11-18 07:50:00,
2013-11-17 23:55:00,49.6,46.8,30.14,SW,216,1.0,2.0,90,0.00,,,0.00,meteohub,2013-11-18 07:55:00,